MDT,Max TemperatureF,Mean TemperatureF,Min TemperatureF,Max Dew PointF,MeanDew PointF,Min DewpointF,Max Humidity, Mean Humidity, Min Humidity, Max Sea Level PressureIn, Mean Sea Level PressureIn, Min Sea Level PressureIn, Max VisibilityMiles, Mean VisibilityMiles, Min VisibilityMiles, Max Wind SpeedMPH, Mean Wind SpeedMPH, Max Gust SpeedMPH,PrecipitationIn, CloudCover, Events, WindDirDegrees
2013-8-1,84,67,50,48,43,30,87,52,15,30.28,30.14,29.97,10,10,10,18,8,26,0.00,1,Thunderstorm,115
2013-8-2,78,63,48,39,32,23,66,35,13,30.18,30.12,30.00,10,10,10,15,4,25,0.00,1,,186
2013-8-3,82,60,39,37,33,27,81,47,13,30.25,30.20,30.17,10,10,10,14,5,22,0.00,0,,3
2013-8-4,84,62,39,37,32,21,87,46,12,30.28,30.21,30.16,10,10,10,16,4,29,0.00,0,,2
2013-8-5,86,62,37,34,30,21,75,41,9,30.26,30.18,30.08,10,10,10,17,7,36,0.00,0,Thunderstorm,315
2013-8-6,80,61,42,37,32,27,70,39,14,30.20,30.15,30.10,10,10,10,16,5,26,0.00,0,,333
2013-8-7,82,62,42,48,33,18,81,47,9,30.21,30.15,30.06,10,10,10,16,6,24,0.00,0,,345
2013-8-8,78,58,39,43,34,28,66,46,21,30.24,30.18,30.10,10,10,10,28,6,34,0.00,1,,339
2013-8-9,80,66,53,46,40,27,72,49,15,30.26,30.21,30.13,10,10,8,14,7,20,0.00,4,,358
2013-8-10,82,64,46,45,38,28,82,50,14,30.31,30.25,30.19,10,10,10,14,5,22,0.00,1,,18
2013-8-11,80,60,39,39,35,25,87,49,14,30.33,30.26,30.18,10,10,10,18,5,26,0.00,1,Thunderstorm,295
2013-8-12,80,60,41,45,37,30,81,53,17,30.31,30.27,30.21,10,10,10,22,4,34,0.00,1,Thunderstorm,329
2013-8-13,75,57,39,46,39,21,87,61,13,30.35,30.32,30.25,19,10,10,16,4,21,0.00,2,Rain-Thunderstorm,341
2013-8-14,80,60,39,43,37,25,100,57,13,30.34,30.28,30.19,10,10,10,12,4,23,0.00,0,,327
2013-8-15,84,62,41,34,30,21,70,39,10,30.33,30.26,30.21,10,10,10,8,3,,0.00,0,,337
2013-8-16,87,62,37,32,28,21,70,37,9,30.33,30.26,30.20,10,10,10,10,5,18,0.00,0,,7
2013-8-17,87,64,42,39,30,27,61,38,11,30.32,30.24,30.17,10,10,10,15,5,21,0.00,0,,12
2013-8-18,87,68,48,39,34,28,62,39,13,30.29,30.23,30.18,10,10,10,15,5,23,0.00,0,,355
2013-8-19,87,66,44,39,33,25,71,42,11,30.30,30.24,30.17,10,10,10,17,6,32,0.00,0,,346
2013-8-20,84,68,51,43,35,28,58,39,14,30.23,30.20,30.14,10,10,10,12,5,18,0.00,1,,347
2013-8-21,78,64,51,54,47,39,88,55,32,30.30,30.27,30.20,10,10,10,29,10,34,0.00,4,,348
2013-8-22,80,64,48,54,49,41,100,70,24,30.34,30.26,30.14,15,10,9,16,6,21,0.00,3,,23
2013-8-23,82,66,50,55,50,37,100,76,20,30.21,30.17,30.06,10,10,10,16,7,31,0.06,4,Rain-Thunderstorm,1
2013-8-24,75,63,51,54,50,39,100,80,29,30.27,30.17,30.09,10,8,0,25,3,34,0.02,6,Fog,246
2013-8-25,80,64,48,52,48,37,100,72,21,30.29,30.24,30.17,10,10,10,13,4,18,0.00,2,,271
2013-8-26,75,63,51,50,48,43,88,67,34,30.29,30.25,30.20,10,10,10,15,4,17,0.00,2,Thunderstorm,337
2013-8-27,75,62,48,57,50,39,100,82,31,30.31,30.26,30.22,10,10,10,7,2,,0.01,4,Thunderstorm,6
2013-8-28,78,64,50,55,51,45,100,81,30,30.32,30.26,30.21,10,7,0,14,3,23,0.02,4,Thunderstorm,354
2013-8-29,82,63,44,57,49,43,100,79,28,30.38,30.33,30.28,10,10,10,14,4,20,0.00,1,Rain-Thunderstorm,32
2013-8-30,84,63,42,52,44,36,100,58,19,30.38,30.30,30.22,10,10,10,17,4,30,0.00,1,Thunderstorm,284
2013-8-31,82,60,39,43,35,23,93,58,12,30.31,30.25,30.19,10,10,8,12,5,17,0.00,1,,8